Location: Clyde
(45.1830°S, 169.3170°E)
Time: 07:49:40
(UTC+12:00)

YAOGAN 6 - Pass Details

Date: 14 May 2021
Orbit: 464 x 503 km, 97.0° (Epoch: 20 June)

Event Time Altitude Azimuth Distance (km) Brightness Sun altitude
Rises 18:41:01 0° 175° (S) 2,546 6.0 -13.5°
Reaches altitude 10° 18:43:08 10° 181° (S) 1,661 5.1 -13.8°
Maximum altitude 18:46:32 43° 253° (WSW) 679 3.7 -14.4°
Drops below altitude 10° 18:49:55 10° 325° (NW) 1,648 5.9 -15.0°
Sets 18:52:01 0° 332° (NNW) 2,523 6.8 -15.4°
